BEIDOU-2 G1

Last updated on Sun Nov 16 2025 00:03:41 GMT+0000 (Coordinated Universal Time)

1 36287U 10001A 25319.55132909 -.00000271 00000+0 00000+0 0 9991 2 36287 3.7935 60.8017 0003540 246.6846 86.3632 1.00271475 58025
UTC large
Height (km)
Speed (km/s)
/
Latitude / Longitude
Inclination (degrees)
Orbital Period (minutes)
Azimuth
Elevation
Range (km)
Doppler Factor

Next 0 passes for location: London (51.5072 / 0.1276)

Sorry there are no passes over London.